Duncan, OK

1:06 PM CST on November 15, 2019 (GMT -0600)
Halliburton

Weather History for KDUC - September, 2019

Change the Weather History Date:

Tuesday, September 3, 2019

  Actual Average (KLAW) Record (KLAW)
Temperature  
Mean Temperature 81 °F 80 °F  
Max Temperature 93 °F 92 °F 109 °F (2000)
Min Temperature 69 °F 67 °F 49 °F (1974)
Degree Days  
Heating Degree Days 0 0  
Month to date heating degree days 0  
Since 1 July heating degree days 0  
Cooling Degree Days 16 15  
Month to date cooling degree days 45  
Year to date cooling degree days 1961  
Growing Degree Days 31 (Base 50)    
Moisture  
Dew Point 68 °F    
Average Humidity 69    
Maximum Humidity 94    
Minimum Humidity 38    
Precipitation  
Precipitation 0.00 in 0.13 in 1.80 in (1986)
Month to date precipitation 0.46  
Year to date precipitation 21.14  
Sea Level Pressure  
Sea Level Pressure 30.03 in    
Wind  
Wind Speed 6 mph (SE)    
Max Wind Speed 13 mph    
Max Gust Speed -    
Visibility 10 miles    
Events      
T = Trace of Precipitation, MM = Missing Value Source: NWS Daily Summary

Daily Weather History Graph

Daily Weather History Graph

Search for Another Location

Airport or City:

Astronomy

Sep. 03, 2019 Rise Set
Actual Time 7:06 AM CDT 7:55 PM CDT
Civil Twilight 6:40 AM CDT 8:21 PM CDT
Nautical Twilight 6:10 AM CDT 8:51 PM CDT
Astronomical Twilight 5:39 AM CDT 9:22 PM CDT
Moon 11:48 AM CDT (9/3) 11:06 PM CDT (9/3)
Length of Visible Light 13h 40m
Length of Day
12h 49m
Waxing Crescent, 25% of the Moon is Illuminated
Sep 3
Waxing Crescent
Sep 5
First Quarter
Sep 13
Full
Sep 21
Last Quarter
Sep 28
New

Hourly Weather History & Observations

Time (CDT) Temp. Heat Index Dew Point Humidity Pressure Visibility Wind Dir Wind Speed Gust Speed Precip Events Conditions
12:15 AM 74.7 °F - 68.5 °F 81% 30.05 in 10.0 mi East 4.6 mph - N/A   Clear
12:35 AM 74.3 °F - 68.5 °F 82% 30.05 in 10.0 mi East 4.6 mph - N/A   Clear
12:55 AM 73.9 °F - 68.4 °F 83% 30.04 in 10.0 mi East 5.8 mph - N/A   Clear
1:15 AM 73.2 °F - 68.2 °F 84% 30.04 in 10.0 mi East 5.8 mph - N/A   Clear
1:35 AM 73.2 °F - 68.2 °F 84% 30.04 in 10.0 mi ESE 4.6 mph - N/A   Clear
1:55 AM 73.6 °F - 67.8 °F 82% 30.04 in 10.0 mi East 4.6 mph - N/A   Clear
2:15 AM 73.4 °F - 68.0 °F 83% 30.03 in 10.0 mi East 3.5 mph - N/A   Clear
2:55 AM 72.0 °F - 68.0 °F 87% 30.03 in 10.0 mi East 5.8 mph - N/A   Clear
3:15 AM 71.6 °F - 67.8 °F 88% 30.03 in 10.0 mi East 5.8 mph - N/A   Clear
3:35 AM 71.4 °F - 67.8 °F 88% 30.03 in 10.0 mi East 5.8 mph - N/A   Clear
3:55 AM 71.4 °F - 68.0 °F 89% 30.03 in 10.0 mi ESE 4.6 mph - N/A   Clear
4:15 AM 71.2 °F - 68.0 °F 89% 30.03 in 10.0 mi East 4.6 mph - N/A   Clear
4:35 AM 71.1 °F - 67.8 °F 89% 30.03 in 10.0 mi Calm Calm - N/A   Clear
4:55 AM 71.2 °F - 68.2 °F 90% 30.03 in 10.0 mi East 4.6 mph - N/A   Clear
5:15 AM 70.7 °F - 68.2 °F 92% 30.03 in 10.0 mi East 4.6 mph - N/A   Clear
5:35 AM 70.9 °F - 68.2 °F 91% 30.03 in 10.0 mi East 3.5 mph - N/A   Clear
6:15 AM 70.2 °F - 67.8 °F 92% 30.04 in 10.0 mi ESE 5.8 mph - N/A   Clear
6:35 AM 69.4 °F - 67.6 °F 94% 30.04 in 10.0 mi East 4.6 mph - N/A   Clear
6:55 AM 69.4 °F - 67.5 °F 93% 30.05 in 10.0 mi ESE 3.5 mph - N/A   Clear
7:15 AM 69.6 °F - 67.8 °F 94% 30.05 in 10.0 mi SE 3.5 mph - N/A   Clear
7:35 AM 69.8 °F - 68.0 °F 94% 30.06 in 10.0 mi East 4.6 mph - N/A   Clear
7:55 AM 71.6 °F - 68.0 °F 88% 30.06 in 10.0 mi East 3.5 mph - N/A   Clear
8:15 AM 72.9 °F - 69.6 °F 90% 30.06 in 10.0 mi Calm Calm - N/A   Clear
8:35 AM 73.9 °F - 70.3 °F 88% 30.06 in 10.0 mi South 3.5 mph - N/A   Clear
9:15 AM 77.4 °F - 70.5 °F 79% 30.06 in 10.0 mi SSE 5.8 mph - N/A   Clear
9:35 AM 79.2 °F - 71.4 °F 77% 30.06 in 10.0 mi SSE 6.9 mph - N/A   Clear
9:55 AM 81.1 °F 85.0 °F 70.9 °F 71% 30.06 in 10.0 mi South 8.1 mph - N/A   Clear
10:15 AM 82.9 °F 87.2 °F 70.7 °F 66% 30.06 in 10.0 mi South 5.8 mph - N/A   Clear
10:35 AM 84.2 °F 88.7 °F 70.5 °F 63% 30.06 in 10.0 mi South 10.4 mph - N/A   Clear
10:55 AM 85.6 °F 91.1 °F 71.2 °F 62% 30.06 in 10.0 mi South 8.1 mph - N/A   Clear
11:15 AM 86.7 °F 92.1 °F 71.1 °F 59% 30.05 in 10.0 mi South 9.2 mph - N/A   Clear
11:35 AM 87.6 °F 92.7 °F 70.0 °F 56% 30.05 in 10.0 mi South 9.2 mph - N/A   Clear
11:55 AM 88.3 °F 92.8 °F 69.1 °F 53% 30.05 in 10.0 mi South 10.4 mph - N/A   Clear
12:15 PM 89.1 °F 92.1 °F 67.3 °F 48% 30.05 in 10.0 mi SSW 8.1 mph - N/A   Clear
12:55 PM 89.8 °F 93.8 °F 68.2 °F 49% 30.04 in 10.0 mi South 12.7 mph - N/A   Clear
1:15 PM 90.1 °F 94.0 °F 68.2 °F 48% 30.03 in 10.0 mi SSW 12.7 mph - N/A   Clear
1:35 PM 91.2 °F 95.5 °F 68.4 °F 47% 30.03 in 10.0 mi South 10.4 mph - N/A   Clear
1:55 PM 91.6 °F 95.2 °F 67.6 °F 45% 30.02 in 10.0 mi SSW 8.1 mph - N/A   Clear
2:15 PM 91.6 °F 93.9 °F 65.8 °F 42% 30.01 in 10.0 mi SSW 3.5 mph - N/A   Clear
2:35 PM 91.9 °F 95.4 °F 67.3 °F 44% 30.00 in 10.0 mi South 9.2 mph - N/A   Scattered Clouds
3:15 PM 91.9 °F 94.5 °F 66.0 °F 42% 29.99 in 10.0 mi SSE 8.1 mph - N/A   Clear
3:35 PM 93.0 °F 95.9 °F 66.2 °F 41% 29.99 in 10.0 mi South 5.8 mph - N/A   Scattered Clouds
3:55 PM 92.5 °F 95.0 °F 65.3 °F 41% 29.98 in 10.0 mi SSE 9.2 mph - N/A   Clear
4:15 PM 92.3 °F 93.8 °F 64.4 °F 39% 29.97 in 10.0 mi ESE 6.9 mph - N/A   Clear
4:35 PM 92.7 °F 94.4 °F 64.6 °F 39% 29.97 in 10.0 mi SE 8.1 mph - N/A   Clear
4:55 PM 93.0 °F 95.0 °F 64.4 °F 39% 29.97 in 10.0 mi SE 10.4 mph - N/A   Clear
5:15 PM 92.8 °F 94.3 °F 63.7 °F 38% 29.97 in 10.0 mi SE 5.8 mph - N/A   Clear
5:35 PM 92.5 °F 95.4 °F 66.0 °F 42% 29.97 in 10.0 mi ESE 9.2 mph - N/A   Clear
6:15 PM 91.6 °F 93.9 °F 65.8 °F 42% 29.98 in 10.0 mi SE 8.1 mph - N/A   Clear
6:35 PM 90.7 °F 93.6 °F 66.7 °F 45% 29.99 in 10.0 mi SE 8.1 mph - N/A   Clear
6:55 PM 89.6 °F 93.4 °F 68.2 °F 49% 29.99 in 10.0 mi SE 6.9 mph - N/A   Clear
7:15 PM 88.2 °F 92.5 °F 69.1 °F 53% 29.99 in 10.0 mi SE 5.8 mph - N/A   Clear
7:35 PM 86.2 °F 90.7 °F 69.8 °F 58% 30.00 in 10.0 mi SE 5.8 mph - N/A   Clear
7:55 PM 83.8 °F 88.1 °F 70.0 °F 63% 30.00 in 10.0 mi SE 6.9 mph - N/A   Clear
8:15 PM 82.4 °F 86.3 °F 70.0 °F 66% 30.00 in 10.0 mi SE 5.8 mph - N/A   Clear
8:35 PM 81.1 °F 84.5 °F 69.6 °F 68% 30.01 in 10.0 mi SE 8.1 mph - N/A   Clear
8:55 PM 79.9 °F - 69.8 °F 71% 30.01 in 10.0 mi ESE 6.9 mph - N/A   Clear
9:15 PM 79.2 °F - 69.8 °F 73% 30.02 in 10.0 mi ESE 8.1 mph - N/A   Clear
9:35 PM 78.6 °F - 69.8 °F 74% 30.02 in 10.0 mi ESE 6.9 mph - N/A   Clear
9:55 PM 77.9 °F - 69.8 °F 76% 30.03 in 10.0 mi East 6.9 mph - N/A   Clear
10:15 PM 77.4 °F - 69.8 °F 77% 30.04 in 10.0 mi ESE 5.8 mph - N/A   Clear
10:35 PM 76.8 °F - 69.8 °F 79% 30.04 in 10.0 mi ESE 6.9 mph - N/A   Clear
10:55 PM 76.3 °F - 69.8 °F 80% 30.04 in 10.0 mi ESE 8.1 mph - N/A   Clear
11:15 PM 75.9 °F - 69.6 °F 81% 30.05 in 10.0 mi ESE 8.1 mph - N/A   Clear
11:35 PM 75.7 °F - 69.4 °F 81% 30.05 in 10.0 mi ESE 8.1 mph - N/A   Clear
11:55 PM 75.4 °F - 69.3 °F 81% 30.05 in 10.0 mi ESE 6.9 mph - N/A   Clear